Home > Weather > Ahmedabad > Past weeks

Flag for India Weather for the Past 2 Weeks in Ahmedabad, Gujarat, India

Now
72 °F

Clear.


Feels Like: 77 °F
Forecast: 56 / 85 °F
Wind: No wind

Location: Ahmadabad Airport

Current Time: Feb 6, 2016 at 9:19:53 PM

Latest Report: Feb 6, 2016 at 8:30 PM


Visibility: 2 mi

Pressure: 29.86 "Hg

Humidity: 33%

Dew point: 41 °F

Location of AhmedabadLocation

Historic Weather in Ahmedabad — Graph

°F

Ahmedabad Temperature Yesterday

Maximum temperature yesterday: 88 °F (at 4:30 PM)
Minimum temperature yesterday: 55 °F (at 2:00 AM)
Average temperature yesterday: 69 °F

High & Low Weather Summary for the Past Weeks

 TemperatureHumidityPressure
High93 °F (Jan 29, 2:30 PM)88% (Jan 27, 7:00 AM)30.12 "Hg (Jan 27, 7:00 AM)
Low46 °F (Jan 23, 5:30 AM)16% (Jan 24, 2:00 PM)29.77 "Hg (Feb 6, 4:00 PM)
Average70 °F50%29.98 "Hg
* Reported Jan 22 7:30 PM — Feb 6 8:00 PM, Ahmedabad, Weather by CustomWeather, © 2016

Note: Actual official high and low records may vary slightly from our data, if they occured in-between our weather recording intervals... More about our weather records

Advertising

Ahmedabad Weather History for the Previous 24 Hours

 ConditionsComfort  
Time TempWeatherWind HumidityBarometerVisibility
8:00 PM
Sat, Feb 6
73 °FClear.No wind31%29.83 "Hg2 mi
7:30 PM73 °FClear.No wind33%29.83 "Hg2 mi
7:00 PM75 °FClear.2 mph29%29.83 "Hg2 mi
6:30 PM79 °FClear.2 mph26%29.80 "Hg2 mi
6:00 PM81 °FClear.3 mph24%29.80 "Hg3 mi
5:30 PM84 °FClear.6 mph22%29.80 "Hg4 mi
5:00 PM84 °FClear.8 mph22%29.80 "Hg4 mi
4:30 PM86 °FClear.6 mph20%29.77 "Hg4 mi
4:00 PM86 °FClear.6 mph20%29.77 "Hg4 mi
3:30 PM86 °FClear.8 mph19%29.80 "Hg4 mi
3:00 PM86 °FClear.3 mph20%29.80 "Hg4 mi
2:30 PM86 °FClear.7 mph20%29.80 "Hg4 mi
2:00 PM86 °FClear.6 mph20%29.83 "Hg4 mi
1:30 PM86 °FClear.3 mph20%29.83 "Hg4 mi
1:00 PM84 °FClear.5 mph20%29.86 "Hg3 mi
12:30 PM82 °FClear.3 mph21%29.86 "Hg3 mi
11:30 AM79 °FClear.5 mph28%29.89 "Hg2 mi
10:30 AM73 °FClear.5 mph33%29.92 "Hg1 mi
9:30 AM66 °FHaze.2 mph46%29.92 "Hg1 mi
9:00 AM63 °FHaze.2 mph52%29.89 "Hg1 mi
8:00 AM57 °FHaze.2 mph59%29.86 "Hg1 mi
7:30 AM55 °FHaze.3 mph63%29.86 "Hg1 mi
6:30 AM55 °FHaze.5 mph72%29.83 "Hg2 mi
6:00 AM55 °FHaze.No wind72%29.83 "Hg2 mi
5:30 AM55 °FHaze.No wind72%29.83 "Hg2 mi
5:00 AM57 °FHaze.No wind67%29.80 "Hg2 mi
4:30 AM59 °FHaze.No wind59%29.80 "Hg2 mi
4:00 AM61 °FHaze.No wind68%29.80 "Hg2 mi
3:30 AM59 °FHaze.2 mph51%29.83 "Hg2 mi
3:00 AM59 °FHaze.3 mph63%29.83 "Hg2 mi
2:30 AM61 °FHaze.3 mph59%29.83 "Hg2 mi
2:00 AM61 °FHaze.5 mph63%29.83 "Hg2 mi
1:30 AM63 °FHaze.3 mph68%29.83 "Hg2 mi
1:00 AM63 °FHaze.3 mph59%29.83 "Hg2 mi
12:30 AM63 °FHaze.2 mph59%29.86 "Hg2 mi
12:00 AM63 °FHaze.No wind56%29.86 "Hg2 mi
11:30 PM
Fri, Feb 5
64 °FHaze.No wind64%29.86 "Hg2 mi
11:00 PM64 °FClear.No wind64%29.86 "Hg2 mi
10:30 PM66 °FClear.No wind52%29.86 "Hg2 mi
10:00 PM68 °FClear.No wind49%29.86 "Hg2 mi
9:30 PM68 °FClear.3 mph46%29.86 "Hg2 mi
Weather by CustomWeather, © 2016

See weather overviewHow to use our weather pages